• In Romania
  • List of Countries
  • For 7 days
  • Water Temperature
  • Satellite Maps
  • Weather Map
  • Weather Widgets
  • user-avatar
    Login

    Hourly Weather Satif

    Today, 26 June, Monday

    Time Temperature Precipitation Wind Pressure Humidity
    00:00 +24°C° 0 mm 2 mps 673 mmHg 37%
    01:00 +24°C° 0 mm 2 mps 673 mmHg 37%
    02:00 +23°C° 0 mm 2 mps 672 mmHg 36%
    03:00 +23°C° 0 mm 2 mps 672 mmHg 36%
    04:00 +24°C° 0 mm 2 mps 672 mmHg 34%
    05:00 +25°C° 0 mm 2 mps 672 mmHg 32%
    06:00 +27°C° 0 mm 2 mps 673 mmHg 28%
    07:00 +29°C° 0 mm 3 mps 673 mmHg 24%
    08:00 +33°C° 0 mm 3 mps 674 mmHg 19%
    09:00 +36°C° 0 mm 4 mps 674 mmHg 15%
    10:00 +37°C° 0 mm 4 mps 674 mmHg 13%
    11:00 +38°C° 0 mm 4 mps 675 mmHg 12%
    12:00 +40°C° 0 mm 4 mps 675 mmHg 11%
    13:00 +40°C° 0 mm 4 mps 675 mmHg 11%
    14:00 +40°C° 0 mm 4 mps 674 mmHg 12%
    15:00 +39°C° 0 mm 3 mps 674 mmHg 13%
    16:00 +37°C° 0 mm 3 mps 674 mmHg 17%
    17:00 +36°C° 0 mm 2 mps 673 mmHg 22%
    18:00 +34°C° 0 mm 2 mps 673 mmHg 26%
    19:00 +31°C° 0 mm 1 mps 673 mmHg 32%
    20:00 +28°C° 0 mm 1 mps 673 mmHg 39%
    21:00 +26°C° 0 mm 1 mps 673 mmHg 45%
    22:00 +26°C° 0.3 mm 1 mps 673 mmHg 47%
    23:00 +26°C° 0.3 mm 2 mps 673 mmHg 50%

    Tomorrow, 27 June, Tuesday

    Time Temperature Precipitation Wind Pressure Humidity
    00:00 +26°C° 0.3 mm 2 mps 673 mmHg 52%
    01:00 +25°C° 0 mm 2 mps 673 mmHg 52%
    02:00 +25°C° 0 mm 2 mps 672 mmHg 51%
    03:00 +25°C° 0 mm 2 mps 672 mmHg 50%
    04:00 +25°C° 0 mm 2 mps 672 mmHg 46%
    05:00 +26°C° 0 mm 1 mps 673 mmHg 43%
    06:00 +27°C° 0 mm 1 mps 673 mmHg 40%
    07:00 +30°C° 0 mm 2 mps 674 mmHg 33%
    08:00 +34°C° 0 mm 3 mps 674 mmHg 27%
    09:00 +36°C° 0 mm 4 mps 675 mmHg 20%
    10:00 +37°C° 0 mm 4 mps 675 mmHg 19%
    11:00 +37°C° 0 mm 3 mps 675 mmHg 18%
    12:00 +37°C° 0 mm 3 mps 675 mmHg 18%
    13:00 +37°C° 0 mm 3 mps 674 mmHg 18%
    14:00 +37°C° 0 mm 2 mps 674 mmHg 19%
    15:00 +37°C° 0 mm 2 mps 674 mmHg 20%
    16:00 +36°C° 0.1 mm 2 mps 673 mmHg 22%
    17:00 +34°C° 0.1 mm 2 mps 673 mmHg 25%
    18:00 +32°C° 0.1 mm 2 mps 672 mmHg 27%
    19:00 +31°C° 0.3 mm 2 mps 672 mmHg 29%
    20:00 +29°C° 0.3 mm 2 mps 672 mmHg 32%
    21:00 +28°C° 0.3 mm 2 mps 672 mmHg 34%
    22:00 +27°C° 0 mm 2 mps 672 mmHg 34%
    23:00 +27°C° 0 mm 2 mps 671 mmHg 33%

    Day after tomorrow, 28 June, Wednesday

    Time Temperature Precipitation Wind Pressure Humidity
    00:00 +26°C° 0 mm 2 mps 671 mmHg 33%
    01:00 +25°C° 0.1 mm 2 mps 671 mmHg 34%
    02:00 +25°C° 0.1 mm 2 mps 671 mmHg 36%
    03:00 +24°C° 0.1 mm 1 mps 671 mmHg 37%
    04:00 +25°C° 0 mm 1 mps 671 mmHg 35%
    05:00 +26°C° 0 mm 1 mps 671 mmHg 33%
    06:00 +27°C° 0 mm 1 mps 672 mmHg 32%
    07:00 +29°C° 0 mm 2 mps 672 mmHg 29%
    08:00 +31°C° 0 mm 3 mps 673 mmHg 26%
    09:00 +34°C° 0 mm 3 mps 674 mmHg 23%
    10:00 +35°C° 0 mm 4 mps 673 mmHg 21%
    11:00 +36°C° 0 mm 5 mps 673 mmHg 20%
    12:00 +36°C° 0 mm 5 mps 673 mmHg 18%
    13:00 +36°C° 0 mm 5 mps 673 mmHg 18%
    14:00 +36°C° 0 mm 5 mps 673 mmHg 19%
    15:00 +36°C° 0 mm 5 mps 672 mmHg 19%
    16:00 +35°C° 0 mm 5 mps 672 mmHg 24%
    17:00 +33°C° 0 mm 4 mps 672 mmHg 28%
    18:00 +30°C° 0 mm 3 mps 671 mmHg 33%
    19:00 +28°C° 0 mm 3 mps 671 mmHg 43%
    20:00 +25°C° 0 mm 2 mps 671 mmHg 54%
    21:00 +23°C° 0 mm 2 mps 671 mmHg 64%
    22:00 +22°C° 0 mm 1 mps 671 mmHg 67%
    23:00 +21°C° 0 mm 1 mps 671 mmHg 70%

    29 June, Thursday

    Time Temperature Precipitation Wind Pressure Humidity
    00:00 +21°C° 0 mm 1 mps 671 mmHg 73%
    01:00 +20°C° 0 mm 1 mps 670 mmHg 75%
    02:00 +19°C° 0 mm 1 mps 670 mmHg 77%
    03:00 +19°C° 0 mm 1 mps 670 mmHg 79%
    04:00 +20°C° 0 mm 1 mps 670 mmHg 73%
    05:00 +21°C° 0 mm 1 mps 671 mmHg 67%
    06:00 +22°C° 0 mm 1 mps 671 mmHg 61%
    07:00 +25°C° 0 mm 1 mps 672 mmHg 50%
    08:00 +28°C° 0 mm 1 mps 672 mmHg 38%
    09:00 +30°C° 0 mm 1 mps 673 mmHg 27%
    10:00 +32°C° 0 mm 2 mps 673 mmHg 24%
    11:00 +34°C° 0 mm 3 mps 673 mmHg 20%
    12:00 +36°C° 0 mm 4 mps 674 mmHg 16%
    13:00 +35°C° 0 mm 4 mps 673 mmHg 18%
    14:00 +35°C° 0 mm 4 mps 673 mmHg 19%
    15:00 +35°C° 0 mm 5 mps 672 mmHg 21%
    16:00 +33°C° 0 mm 4 mps 672 mmHg 26%
    17:00 +31°C° 0 mm 3 mps 672 mmHg 31%
    18:00 +29°C° 0 mm 2 mps 671 mmHg 37%
    19:00 +27°C° 0 mm 2 mps 671 mmHg 46%
    20:00 +25°C° 0 mm 2 mps 671 mmHg 55%
    21:00 +23°C° 0 mm 2 mps 670 mmHg 64%
    22:00 +21°C° 0 mm 2 mps 670 mmHg 69%
    23:00 +21°C° 0 mm 1 mps 670 mmHg 74%

    30 June, Friday

    Time Temperature Precipitation Wind Pressure Humidity
    00:00 +20°C° 0 mm 1 mps 669 mmHg 79%
    01:00 +20°C° 0 mm 1 mps 669 mmHg 79%
    02:00 +20°C° 0 mm 1 mps 668 mmHg 79%
    03:00 +19°C° 0 mm 1 mps 668 mmHg 79%
    04:00 +20°C° 0 mm 1 mps 668 mmHg 72%
    05:00 +22°C° 0 mm 1 mps 669 mmHg 64%
    06:00 +21°C° 0 mm 0 mps 669 mmHg 57%
    07:00 +25°C° 0 mm 1 mps 670 mmHg 47%
    08:00 +28°C° 0 mm 2 mps 671 mmHg 37%
    09:00 +31°C° 0 mm 3 mps 672 mmHg 27%
    10:00 +33°C° 0 mm 4 mps 672 mmHg 25%
    11:00 +34°C° 0 mm 5 mps 672 mmHg 22%
    12:00 +36°C° 0 mm 6 mps 672 mmHg 20%
    13:00 +36°C° 0.1 mm 6 mps 672 mmHg 21%
    14:00 +35°C° 0.1 mm 6 mps 671 mmHg 22%
    15:00 +35°C° 0.1 mm 6 mps 671 mmHg 23%
    16:00 +32°C° 0.1 mm 5 mps 671 mmHg 34%
    17:00 +28°C° 0.1 mm 5 mps 671 mmHg 45%
    18:00 +26°C° 0.1 mm 4 mps 670 mmHg 56%
    19:00 +23°C° 0.8 mm 4 mps 671 mmHg 64%
    20:00 +21°C° 0.8 mm 3 mps 671 mmHg 71%
    21:00 +19°C° 0.8 mm 3 mps 672 mmHg 78%
    22:00 +18°C° 0.9 mm 2 mps 672 mmHg 79%
    23:00 +18°C° 0.9 mm 2 mps 672 mmHg 81%

    1 July, Saturday

    Time Temperature Precipitation Wind Pressure Humidity
    00:00 +17°C° 0.9 mm 2 mps 672 mmHg 82%
    01:00 +18°C° 0.3 mm 1 mps 672 mmHg 84%
    02:00 +16°C° 0.3 mm 1 mps 671 mmHg 86%
    03:00 +16°C° 0.3 mm 1 mps 671 mmHg 88%
    04:00 +16°C° 0.3 mm 2 mps 671 mmHg 85%
    05:00 +17°C° 0.3 mm 2 mps 672 mmHg 81%
    06:00 +17°C° 0.3 mm 2 mps 672 mmHg 78%
    07:00 +18°C° 0.1 mm 2 mps 672 mmHg 70%
    08:00 +20°C° 0.1 mm 3 mps 673 mmHg 62%
    09:00 +21°C° 0.1 mm 3 mps 674 mmHg 54%
    10:00 +22°C° 0 mm 3 mps 674 mmHg 49%
    11:00 +23°C° 0 mm 4 mps 674 mmHg 45%
    12:00 +26°C° 0 mm 4 mps 675 mmHg 40%
    13:00 +26°C° 0 mm 4 mps 675 mmHg 39%
    14:00 +26°C° 0 mm 4 mps 675 mmHg 38%
    15:00 +26°C° 0 mm 4 mps 674 mmHg 37%
    16:00 +23°C° 0 mm 4 mps 674 mmHg 40%
    17:00 +22°C° 0 mm 4 mps 674 mmHg 44%
    18:00 +20°C° 0 mm 4 mps 674 mmHg 47%
    19:00 +19°C° 0 mm 3 mps 674 mmHg 54%
    20:00 +17°C° 0 mm 3 mps 675 mmHg 61%
    21:00 +16°C° 0 mm 2 mps 675 mmHg 69%
    22:00 +15°C° 0 mm 2 mps 675 mmHg 72%
    23:00 +15°C° 0 mm 2 mps 675 mmHg 76%
    Show more